HISPASAT 1E

Last updated on Sat Mar 09 2019 03:10:48 GMT+0000 (Coordinated Universal Time)

1 37264U 10070A 19067.43943439 -.00000223 00000-0 00000+0 0 9999 2 37264 0.0336 122.5328 0002684 262.5868 268.9244 1.00271189 30014
UTC large
Height (km)
Speed (km/s)
/
Latitude / Longitude
Inclination (degrees)
Orbital Period (minutes)
Azimuth
Elevation
Range (km)
Doppler Factor

Next 0 passes for location: London (51.5072 / 0.1276)

Sorry there are no passes over London.